Hourly Data Report for September 24, 2022

TORONTO CITY
ONTARIO
Current Station Operator: ECCC - MSC

43°40'00.000" N
79°24'00.000" W
112.50 m
6158355
71508
XTO

Download Data

Hourly Data (September 2022)
Hourly Data Report for September 24, 2022
TIME
LST
Temp Definition
°C
Dew Point Definition
°C
Rel Hum Definition
%
Precip. Amount Definition
mm

Wind Dir Definition
10's deg

Wind Spd Definition
km/h
Visibility Definition
km
Stn Press Definition
kPa
Hmdx Definition


Wind Chill Definition


Weather Definition


00:00 9.7 5.5 75 0.0       100.64     LegendNANA
01:00 9.3 5.5 77 0.0       100.63     LegendNANA
02:00 9.4 5.3 76 0.0       100.57     LegendNANA
03:00 9.3 4.9 74 0.0       100.57     LegendNANA
04:00 8.6 4.9 77 0.0       100.58     LegendNANA
05:00 8.1 5.1 82 0.0       100.55     LegendNANA
06:00 8.1 4.6 78 0.0       100.55     LegendNANA
07:00 8.2 5.1 80 0.0       100.52     LegendNANA
08:00 12.4 6.2 66 0.0       100.51     LegendNANA
09:00 13.5 5.5 58 0.0       100.47     LegendNANA
10:00 14.7 4.7 51 0.0       100.44     LegendNANA
11:00 15.0 4.5 49 0.0       100.40     LegendNANA
12:00 16.3 5.6 49 0.0       100.32     LegendNANA
13:00 17.6 6.3 47 0.0       100.21     LegendNANA
14:00 16.9 6.0 49 0.0       100.09     LegendNANA
15:00 15.8 6.3 53 0.0       100.01     LegendNANA
16:00 15.9 6.8 55 0.0       99.95     LegendNANA
17:00 16.1 7.2 56 0.0       99.91     LegendNANA
18:00 16.4 8.0 57 0.0       99.85     LegendNANA
19:00 16.2 8.2 59 0.0       99.82     LegendNANA
20:00 15.9 8.5 61 0.0       99.78     LegendNANA
21:00 15.4 8.4 63 0.0       99.72     LegendNANA
22:00 15.2 8.7 65 0.0       99.66     LegendNANA
23:00 15.0 8.6 65 0.0       99.58     LegendNANA

Notes on Data Quality.

Legend

  • E = Estimated
  • M = Missing
  • NA = Not Available*
  • [empty] = Indicates an unobserved value
Date modified: